x

Columbia River Bar - 20nm West Of Columbia River Mouth (46029) Wave Buoy

8:50 - Sat 23rd Sep 2017 All times are PDT. -7 hours from GMT.

  • Sig Wave height 3.6ft
  • Swell Direction
  • Peak Period 7s
  • Average Period 6s
  • Wind
    4mph, 7mph gusts
  • Sea Temp 59°f
  • Ar Temp 58°f
  • Sea Pressure 1019.9mb
  • Columbia River Bar - 20nm West Of Columbia River Mouth
  • Columbia River Bar - 20nm West Of Columbia River Mouth

More Historic Weather Station data

Upgrade to MSW Pro to gain access to the past 30 days of data for over 8000 Wavebouys and Weather Stations around the globe.

Join

Comparision Forecast

View Surf forecast
   
Sáb 09/23 8:50 3.5ft 7s 6s 4 7 mph 1019.9mb 59f 58f
7:50 4ft 7s 6s 4 7 mph 1019.7mb 59f 58f
6:50 4ft 8s 6s 4 7 mph 1019.5mb 59f 58f
5:50 3.5ft 7s 6s 4 7 mph 1019.6mb 59f 59f
4:50 3.5ft 8s 6s 4 4 mph 1019.5mb 60f 59f
3:50 3.5ft 8s 6s  -  2 mph 1019.6mb 59f 58f
2:50 3.5ft 8s 6s 2 4 mph 1019.6mb 59f 58f
1:50 4ft 7s 6s 4 4 mph 1019.7mb 59f 58f
12:50 4.5ft 8s 6s 2 4 mph 1019.4mb 59f 58f
11:50 4.5ft 8s 6s 2 2 mph 1019.3mb 58f 57f
10:50 4.5ft 8s 6s 7 9 mph 1019.5mb 58f 57f
9:50 4.5ft 8s 6s 4 7 mph 1019.4mb 58f 57f
8:50 4.5ft 8s 7s 2 4 mph 1019.1mb 58f 58f
7:50 4.5ft 8s 7s 2 2 mph 1018.5mb 58f 59f
6:50 4.5ft 8s 7s 2 4 mph 1018.1mb 58f 59f
5:50 4.5ft 8s 7s 4 4 mph 1018mb 58f 58f
4:50 4.5ft 8s 7s 2 4 mph 1017.8mb 58f 58f
3:50 5ft 8s 7s  -  2 mph 1017.8mb 58f 59f
2:50 4.5ft 8s 6s 2 4 mph 1017.9mb 58f 59f
1:50 5ft 9s 6s 2 4 mph 1018.1mb 58f 59f
12:50 5ft 9s 6s 4 7 mph 1018.1mb 59f 59f
Sex 09/22 11:50 5.5ft 9s 7s 2 4 mph 1018.3mb 59f 59f
10:50 5ft 9s 7s 4 4 mph 1018.4mb 59f 59f
9:50 5.5ft 9s 7s  -  2 mph 1018.6mb 58f 59f
8:50 6ft 9s 7s 4 7 mph 1018.5mb 58f 59f
7:50 6ft 9s 7s 4 4 mph 1018.3mb 59f 59f
6:50 7ft 9s 8s 4 7 mph 1018.3mb 59f 59f
5:50 6ft 9s 8s 4 7 mph 1018.1mb 61f 60f
4:50 5ft 9s 7s 2 4 mph 1018.2mb 61f 60f
3:50 6ft 9s 8s 2 2 mph 1018.2mb 61f 60f
2:50 5ft 10s 7s 2 4 mph 1018.3mb 60f 59f
1:50 5ft 10s 7s 2 4 mph 1018.4mb 60f 58f
12:50 5.5ft 10s 7s  -  2 mph 1018.1mb 59f 59f
11:50 5.5ft 10s 7s 2 2 mph 1018.4mb 59f 58f
10:50 6.5ft 10s 7s 2 4 mph 1018.6mb 58f 58f
9:50 7ft 9s 7s 4 7 mph 1018.2mb 58f 58f
8:50 7ft 9s 7s 4 4 mph 1017.9mb 58f 58f
7:50 7ft 10s 7s 2 4 mph 1017.9mb 57f 58f
6:50 8.5ft 10s 8s 2 4 mph 1017.5mb 57f 57f
5:50 7.5ft 9s  -  7 7 mph 1017.1mb 57f 57f
4:50 7.5ft 11s 8s 7 9 mph 1016.8mb 57f 57f
3:50 8ft 10s 8s 7 9 mph 1016.7mb 58f 57f
2:50 7ft 10s 8s 9 11 mph 1016.5mb 57f 57f
1:50 7.5ft 10s 8s 7 7 mph 1016.7mb 57f 57f
12:50 8ft 11s 8s 7 9 mph 1016.7mb 57f 57f
Qui 09/21 11:50 8ft 11s 8s 7 9 mph 1016.8mb 58f 57f
10:50 9ft 11s 8s 7 7 mph 1016.6mb 58f 57f
9:50 8ft 11s 8s 4 7 mph 1016.5mb 58f 57f
8:50 9ft 11s 8s 4 4 mph 1016.2mb 58f 57f
7:50 8.5ft 10s 8s 2 4 mph 1015.7mb 58f 57f
6:50 8ft 11s 8s 2 4 mph 1015.1mb 58f 57f
5:50 8ft 10s 8s 2 4 mph 1014.7mb 58f 58f
4:50 9ft 11s 8s 2 4 mph 1014.3mb 58f 58f
3:50 8ft 10s 8s 4 7 mph 1014mb 58f 58f
2:50 9ft 10s 8s 7 9 mph 1013.9mb 58f 57f
1:50 7.5ft 10s 7s 11 13 mph 1013.4mb 58f 57f
12:50 8ft 11s 7s 13 18 mph 1013.5mb 58f 56f
11:50 8.5ft 11s 7s 16 18 mph 1013.2mb 57f 56f
10:50 8ft 11s 7s 13 18 mph 1013mb 58f 56f
9:50 8ft 10s 7s 13 16 mph 1012.6mb 58f 56f
8:50 8ft 11s 7s 16 20 mph 1012.2mb 58f 56f
7:50 7.5ft 9s 7s 13 18 mph 1012mb 58f 56f
6:50 8ft 11s 7s 7 7 mph 1011.9mb 58f 57f
5:50 8.5ft 11s 8s 7 9 mph 1011.7mb 57f 58f
4:50 8ft 10s 8s 9 9 mph 1011.5mb 58f 57f
3:50 9.5ft 11s 8s 4 7 mph 1011.1mb 58f 57f
2:50 9ft 10s 8s 2 4 mph 1011.1mb 58f 57f
1:50 9ft 10s 8s 2 4 mph 1011.1mb 58f 58f
12:50 9.5ft 10s 8s 4 7 mph 1010.9mb 58f 58f
Qua 09/20 11:50 10ft 11s 8s 4 7 mph 1010.8mb 58f 58f
10:50 9.5ft 10s 8s 4 7 mph 1010.8mb 58f 58f
9:50 9ft 10s 8s 2 4 mph 1010.7mb 58f 58f
8:50 9ft 9s 8s 4 7 mph 1010.6mb 58f 58f
7:50 8ft 10s 7s 7 9 mph 1010.2mb 58f 58f
6:50 8ft 10s 8s 7 9 mph 1009.9mb 58f 57f
5:50 7ft 11s 7s 7 9 mph 1009.4mb 58f 57f
4:50 8ft 10s 8s 7 9 mph 1009.2mb 58f 56f
3:50 8ft 11s 8s 4 7 mph 1008.8mb 58f 55f
2:50 8ft 11s 8s 4 7 mph 1008.3mb 58f 54f
1:50 8ft 10s 8s 4 7 mph 1007.9mb 58f 54f
12:50 9ft 11s 8s 9 11 mph 1007.5mb 58f 53f
11:50 8ft 9s 7s 9 11 mph 1006.7mb 57f 52f
10:50 8ft 11s 7s 11 13 mph 1006mb 57f 51f
9:50 8ft 11s 8s 13 16 mph 1005.2mb 57f 52f
8:50 8ft 11s 7s 11 16 mph 1004.8mb 57f 52f
7:50 8.5ft 11s 8s 9 11 mph 1004.2mb 57f 53f
6:50 8ft 11s 8s 9 13 mph 1003.4mb 57f 53f
5:50 8.5ft 12s 8s 16 20 mph 1003.5mb 57f 53f